📊 Raw Sensor Data
Showing records 38751 to 38775 of 84,935 total
| ID | Distance (ft) | Battery V | Battery A | Int Temp (°F) | Int Humid (%) | Ext Temp (°F) | Solar V | RSSI | SNR | Time Stamp |
|---|---|---|---|---|---|---|---|---|---|---|
| 46197 | 15.5 | 4.14 | 0 | 105 | 43 | 98 | 5.10 | -75 | 8 | 07/13/2025 03:30 PM |
| 46196 | 15.5 | 4.01 | 0 | 104 | 43 | 98 | 5.10 | -74 | 8 | 07/13/2025 03:15 PM |
| 46195 | 15.5 | 4.01 | 0 | 102 | 42 | 95 | 5.10 | -72 | 6 | 07/13/2025 03:00 PM |
| 46194 | 15.5 | 4.02 | 0 | 101 | 42 | 95 | 5.10 | -72 | 7 | 07/13/2025 02:45 PM |
| 46193 | 15.5 | 4.01 | 0 | 100 | 42 | 93 | 5.10 | -72 | 8 | 07/13/2025 02:30 PM |
| 46192 | 15.5 | 4.10 | 0 | 99 | 41 | 89 | 5.10 | -72 | 8 | 07/13/2025 02:15 PM |
| 46191 | 15.5 | 4.14 | 0 | 98 | 42 | 90 | 5.10 | -73 | 8 | 07/13/2025 02:00 PM |
| 46190 | 15.6 | 4.01 | 0 | 97 | 41 | 88 | 5.10 | -73 | 7 | 07/13/2025 01:45 PM |
| 46189 | 15.5 | 4.01 | 0 | 95 | 42 | 89 | 5.10 | -71 | 8 | 07/13/2025 01:30 PM |
| 46188 | 15.4 | 4.01 | 0 | 93 | 42 | 88 | 5.10 | -72 | 7 | 07/13/2025 01:15 PM |
| 46187 | 15.5 | 4.02 | 0 | 91 | 43 | 85 | 5.10 | -71 | 7 | 07/13/2025 01:00 PM |
| 46186 | 15.5 | 4.01 | 0 | 89 | 43 | 82 | 5.10 | -71 | 7 | 07/13/2025 12:45 PM |
| 46185 | 15.4 | 4.14 | 0 | 88 | 43 | 86 | 5.10 | -72 | 7 | 07/13/2025 12:30 PM |
| 46184 | 15.5 | 4.01 | 0 | 87 | 43 | 86 | 5.10 | -72 | 8 | 07/13/2025 12:15 PM |
| 46183 | 15.6 | 4.14 | 0 | 85 | 43 | 86 | 5.10 | -72 | 7 | 07/13/2025 12:00 PM |
| 46182 | 15.5 | 4.01 | 0 | 84 | 43 | 83 | 5.10 | -72 | 8 | 07/13/2025 11:45 AM |
| 46181 | 15.6 | 4.01 | 0 | 82 | 43 | 83 | 5.10 | -72 | 8 | 07/13/2025 11:30 AM |
| 46180 | 15.5 | 4.01 | 0 | 81 | 43 | 80 | 5.10 | -72 | 7 | 07/13/2025 11:15 AM |
| 46179 | 15.5 | 4.01 | 0 | 80 | 43 | 83 | 5.10 | -72 | 8 | 07/13/2025 11:00 AM |
| 46178 | 15.6 | 4.01 | 0 | 79 | 43 | 79 | 5.10 | -72 | 8 | 07/13/2025 10:45 AM |
| 46177 | 15.5 | 4.01 | 0 | 78 | 43 | 80 | 5.10 | -74 | 7 | 07/13/2025 10:30 AM |
| 46176 | 15.6 | 4.04 | 0 | 76 | 43 | 74 | 5.10 | -71 | 7 | 07/13/2025 10:15 AM |
| 46175 | 15.6 | 4.01 | 0 | 76 | 43 | 75 | 5.10 | -74 | 8 | 07/13/2025 10:00 AM |
| 46174 | 15.5 | 4.11 | 0 | 75 | 43 | 77 | 5.10 | -72 | 8 | 07/13/2025 09:45 AM |
| 46173 | 15.6 | 4.01 | 0 | 74 | 43 | 74 | 5.10 | -73 | 8 | 07/13/2025 09:30 AM |